This is the latest recevied weather packets stored in our database for station/object K2YYD-2. If no packets are shown the sender has not sent any weather packets the latest 1 day(s).
| Time | Temp. | Humidity | Pressure | Rain* | Wind** | Luminosity | Snow |
|---|---|---|---|---|---|---|---|
| 1777998785 | 21.67° C | 61% | 1007.7 hPa | 0 mm | 1.79 m/s, 125° | 665 W/m² | - |
| 1777998665 | 21.67° C | 61% | 1007.8 hPa | 0 mm | 1.34 m/s, 267° | 350 W/m² | - |
| 1777998545 | 21.67° C | 61% | 1007.8 hPa | 0 mm | 1.34 m/s, 102° | 745 W/m² | - |
| 1777998422 | 21.67° C | 59% | 1007.8 hPa | 0 mm | 1.79 m/s, 103° | 482 W/m² | - |
| 1777998302 | 21.67° C | 60% | 1007.9 hPa | 0 mm | 1.34 m/s, 12° | 489 W/m² | - |
| 1777998181 | 21.67° C | 61% | 1007.9 hPa | 0 mm | 1.79 m/s, 130° | 562 W/m² | - |
| 1777998061 | 21.67° C | 61% | 1007.9 hPa | 0 mm | 1.79 m/s, 171° | 484 W/m² | - |
| 1777997941 | 21.67° C | 61% | 1007.9 hPa | 0 mm | 1.79 m/s, 184° | 491 W/m² | - |
| 1777997822 | 21.67° C | 62% | 1007.9 hPa | 0 mm | 1.79 m/s, 167° | 685 W/m² | - |
| 1777997702 | 21.67° C | 61% | 1007.9 hPa | 0 mm | 1.79 m/s, 183° | 915 W/m² | - |
| 1777997582 | 21.67° C | 61% | 1007.9 hPa | 0 mm | 1.79 m/s, 174° | 693 W/m² | - |
| 1777997462 | 21.67° C | 61% | 1008 hPa | 0 mm | 1.79 m/s, 180° | 692 W/m² | - |
| 1777997342 | 21.67° C | 62% | 1007.9 hPa | 0 mm | 1.79 m/s, 171° | 711 W/m² | - |
| 1777997222 | 21.67° C | 59% | 1007.9 hPa | 0 mm | 1.79 m/s, 150° | 786 W/m² | - |
| 1777997102 | 21.67° C | 60% | 1007.9 hPa | 0 mm | 1.79 m/s, 189° | 908 W/m² | - |
| 1777996983 | 21.67° C | 62% | 1007.9 hPa | 0 mm | 1.79 m/s, 108° | 958 W/m² | - |
| 1777996862 | 21.67° C | 60% | 1008 hPa | 0 mm | 1.34 m/s, 147° | 621 W/m² | - |
| 1777996742 | 21.67° C | 60% | 1007.9 hPa | 0 mm | 1.34 m/s, 170° | 738 W/m² | - |
| 1777996622 | 21.67° C | 61% | 1007.9 hPa | 0 mm | 1.34 m/s, 325° | 744 W/m² | - |
| 1777996503 | 21.67° C | 61% | 1008 hPa | 0 mm | 1.34 m/s, 336° | 800 W/m² | - |
| 1777996382 | 21.67° C | 62% | 1008.1 hPa | 0 mm | 1.34 m/s, 92° | 925 W/m² | - |
| 1777996262 | 21.67° C | 62% | 1008.2 hPa | 0 mm | 1.34 m/s, 166° | 940 W/m² | - |
| 1777996142 | 21.67° C | 61% | 1008.2 hPa | 0 mm | 1.34 m/s, 309° | 924 W/m² | - |
| 1777996023 | 21.67° C | 61% | 1008.2 hPa | 0 mm | 0.89 m/s, 314° | 917 W/m² | - |
| 1777995903 | 21.67° C | 61% | 1008.2 hPa | 0 mm | 0.89 m/s, 77° | 796 W/m² | - |
* Rain latest hour (hover to see other rain measurements)
** Current wind speed in m/s (hover to see current wind gust speed)